FW3809 Weather Reports


time (UTC)temp
F
wind
direction
speed
knots
gust
knots
rain 1hr
in
rain 24hr
in
rain mn
in
humidity
%
barometer
mb
20260505171520 80 215 4.3 10.4 0.00 0.00 0.00 87 1009.0
20260505170953 80 179 4.3 9.6 0.00 0.00 0.00 87 1009.2
20260505170450 80 208 4.3 9.6 0.00 0.00 0.00 87 1009.2
20260505165923 80 218 4.3 8.7 0.00 0.00 0.00 88 1009.3
20260505165629 80 191 5.2 10.4 0.00 0.00 0.00 88 1009.3
20260505164829 80 190 5.2 10.4 0.00 0.00 0.00 88 1009.3
20260505164327 79 179 5.2 11.3 0.00 0.00 0.00 88 1009.3
20260505163759 79 216 7.0 11.3 0.00 0.00 0.00 88 1009.2
20260505163256 79 205 6.1 10.4 0.00 0.00 0.00 88 1009.3
20260505162730 79 141 4.3 9.6 0.00 0.00 0.00 88 1009.3
20260505162228 79 158 4.3 13.0 0.00 0.00 0.00 88 1009.3
20260505161728 79 198 5.2 10.4 0.00 0.00 0.00 88 1009.1
20260505161724 79 196 4.3 13.0 0.00 0.00 0.00 88 1009.2
20260505160715 79 168 5.2 12.2 0.00 0.00 0.00 88 1009.1
20260505160213 79 189 5.2 13.0 0.00 0.00 0.00 88 1009.1
20260505153044 79 161 4.3 10.4 0.00 0.00 0.00 89 1008.9
20260505152540 78 185 5.2 10.4 0.00 0.00 0.00 89 1008.9
20260505152038 78 189 5.2 10.4 0.00 0.00 0.00 89 1008.9
20260505151534 78 190 6.1 10.4 0.00 0.00 0.00 89 1008.8
20260505151007 78 195 6.1 11.3 0.00 0.00 0.00 89 1008.9
20260505150504 78 228 6.1 11.3 0.00 0.00 0.00 89 1008.9
20260505140648 76 177 6.1 11.3 0.00 0.00 0.00 92 1008.9
20260505140121 76 218 5.2 11.3 0.00 0.00 0.00 92 1009.0
20260505124918 74 177 5.2 12.2 0.00 0.00 0.00 94 1008.5
20260505124418 74 189 4.3 8.7 0.00 0.00 0.00 94 1008.5
20260505123919 74 202 4.3 9.6 0.00 0.00 0.00 94 1008.5
20260505123359 74 133 3.5 9.6 0.00 0.00 0.00 94 1008.5
20260505122838 74 147 4.3 8.7 0.00 0.00 0.00 94 1008.5
20260505122542 74 119 3.5 8.7 0.00 0.00 0.00 94 1008.4
20260505121810 74 204 3.5 7.8 0.00 0.00 0.00 94 1008.3
20260505121307 74 176 4.3 7.8 0.00 0.00 0.00 94 1008.0
20260505120740 74 195 4.3 10.4 0.00 0.00 0.00 94 1008.0
20260505120511 74 196 4.3 10.4 0.00 0.00 0.00 94 1007.9
20260505115723 74 196 4.3 8.7 0.00 0.00 0.00 94 1008.0
20260505115225 74 166 4.3 8.7 0.00 0.00 0.00 94 1008.1
20260505114724 74 131 3.5 7.8 0.00 0.00 0.00 94 1008.4
20260505114426 74 181 3.5 7.8 0.00 0.00 0.00 94 1008.4
20260505113629 74 197 3.5 7.8 0.00 0.00 0.00 94 1008.4
20260505113125 74 195 3.5 8.7 0.00 0.00 0.00 94 1008.2
20260505112559 74 135 4.3 8.7 0.00 0.00 0.00 94 1008.1
20260505112056 74 194 4.3 8.7 0.00 0.00 0.00 94 1008.2
20260505111554 74 175 3.5 8.7 0.00 0.00 0.00 94 1008.1
20260505111258 74 201 3.5 8.7 0.00 0.00 0.00 94 1008.0
20260505110523 74 161 3.5 7.8 0.00 0.00 0.00 94 1008.0
20260505101829 73 137 4.3 9.6 0.00 0.00 0.00 93 1008.1
20260505101326 73 166 3.5 9.6 0.00 0.00 0.00 93 1008.3
20260505100758 73 188 3.5 7.0 0.00 0.00 0.00 93 1008.4
20260505100256 73 191 4.3 8.7 0.00 0.00 0.00 93 1008.4
20260505095728 73 193 3.5 8.7 0.00 0.00 0.00 94 1008.2
20260505095225 73 201 3.5 11.3 0.00 0.00 0.00 93 1008.0
20260505094700 73 175 3.5 11.3 0.00 0.00 0.00 94 1008.1
20260505094132 73 184 3.5 7.8 0.00 0.00 0.00 93 1008.3
20260505093900 73 210 3.5 6.1 0.00 0.00 0.00 93 1008.2
20260505093122 73 161 3.5 8.7 0.00 0.00 0.00 93 1008.2
20260505092554 73 167 3.5 8.7 0.00 0.00 0.00 93 1008.4
20260505092052 73 193 2.6 6.1 0.00 0.00 0.00 93 1008.4
20260505091524 73 156 3.5 7.8 0.00 0.00 0.00 93 1008.4
20260505091253 73 205 3.5 7.0 0.00 0.00 0.00 93 1008.5
20260505090726 73 228 3.5 7.0 0.00 0.00 0.00 93 1008.5
20260505085952 73 198 3.5 8.7 0.00 0.00 0.00 93 1008.6
20260505085424 73 148 4.3 8.7 0.00 0.00 0.00 93 1008.4
20260505084922 72 153 3.5 6.1 0.00 0.00 0.00 93 1008.4
20260505084418 72 199 3.5 6.1 0.00 0.00 0.00 93 1008.5
20260505084148 72 164 2.6 6.1 0.00 0.00 0.00 93 1008.5
20260505083349 72 162 2.6 7.8 0.00 0.00 0.00 93 1008.5
20260505082823 72 184 3.5 7.8 0.00 0.00 0.00 93 1008.6
20260505082321 72 190 3.5 10.4 0.00 0.00 0.00 93 1008.7
20260505081808 72 176 3.5 10.4 0.00 0.00 0.00 92 1008.8
20260505081307 72 177 3.5 8.7 0.00 0.00 0.00 92 1008.8
20260505080808 72 158 3.5 8.7 0.00 0.00 0.00 92 1008.8
20260505080308 72 144 4.3 8.7 0.00 0.00 0.00 92 1008.8
20260505075744 72 193 4.3 8.7 0.00 0.00 0.00 92 1008.8
20260505075246 72 164 4.3 7.8 0.00 0.00 0.00 92 1008.9
20260505074958 72 162 4.3 9.6 0.00 0.00 0.00 92 1008.8
20260505074229 72 160 4.3 9.6 0.00 0.00 0.00 92 1008.9
20260505073720 72 188 4.3 10.4 0.00 0.00 0.00 92 1008.9
20260505073450 72 196 4.3 10.4 0.00 0.00 0.00 91 1009.0
20260505072934 72 179 4.3 7.8 0.00 0.00 0.00 91 1009.0
20260505072159 72 171 3.5 10.4 0.00 0.00 0.00 91 1009.1
20260505071658 72 195 3.5 10.4 0.00 0.00 0.00 91 1009.1
20260505071432 72 204 3.5 7.8 0.00 0.00 0.00 91 1009.1
20260505070642 72 149 3.5 9.6 0.00 0.00 0.00 91 1009.2
20260505070144 72 185 4.3 9.6 0.00 0.00 0.00 91 1009.2
20260505065858 72 166 5.2 8.7 0.00 0.00 0.00 90 1009.2
20260505065126 72 191 5.2 8.7 0.00 0.00 0.00 90 1009.3
20260505064856 72 193 4.3 9.6 0.00 0.00 0.00 90 1009.4
20260505064103 72 176 4.3 9.6 0.00 0.00 0.00 90 1009.5
20260505063548 72 165 4.3 8.7 0.00 0.00 0.00 90 1009.6
20260505063041 72 197 4.3 8.7 0.00 0.00 0.00 90 1009.8
20260505062521 72 171 4.3 10.4 0.00 0.00 0.00 89 1009.7
20260505062224 72 191 4.3 10.4 0.00 0.00 0.00 89 1009.9
20260505061430 72 181 4.3 10.4 0.00 0.00 0.00 89 1010.0
20260505060933 72 202 4.3 10.4 0.00 0.00 0.00 89 1010.0
20260505060401 72 228 4.3 9.6 0.00 0.00 0.00 89 1009.9
20260505055859 72 192 4.3 9.6 0.00 0.00 0.00 89 1010.0
20260505055356 72 183 4.3 10.4 0.00 0.00 0.00 88 1009.9
20260505055059 72 165 4.3 10.4 0.00 0.00 0.00 88 1009.9
20260505054311 72 181 4.3 8.7 0.00 0.00 0.00 88 1010.1
20260505054007 72 176 3.5 7.8 0.00 0.00 0.00 88 1010.1
20260505053209 72 122 3.5 6.1 0.00 0.00 0.00 88 1010.2
20260505052706 72 179 3.5 7.0 0.00 0.00 0.00 88 1010.3
20260505052154 72 206 3.5 8.7 0.00 0.00 0.00 88 1010.3
20260505051627 72 147 3.5 8.7 0.00 0.00 0.00 87 1010.2
20260505051126 72 187 4.3 9.6 0.00 0.00 0.00 88 1010.2
20260505050832 72 201 2.6 9.6 0.00 0.00 0.00 87 1010.2
20260505041340 73 161 3.5 7.0 0.00 0.00 0.00 85 1010.4
20260505040821 73 177 3.5 7.0 0.00 0.00 0.00 85 1010.6
20260505040321 73 152 3.5 7.0 0.00 0.00 0.00 85 1010.7
20260505035818 73 179 4.3 9.6 0.00 0.00 0.00 85 1010.6
20260505035314 73 171 4.3 9.6 0.00 0.00 0.00 84 1010.6
20260505034801 74 154 3.5 7.0 0.00 0.00 0.00 84 1010.8
20260505034241 74 158 4.3 8.7 0.00 0.00 0.00 84 1010.8
20260505033951 74 162 4.3 10.4 0.00 0.00 0.00 84 1010.8
20260505033156 74 179 4.3 12.2 0.00 0.00 0.00 84 1010.8
20260505032637 74 192 5.2 12.2 0.00 0.00 0.00 83 1010.7
20260505032112 74 177 5.2 11.3 0.00 0.00 0.00 83 1010.6
20260505031634 74 167 5.2 11.3 0.00 0.00 0.00 83 1010.6
20260505030525 74 169 6.1 13.0 0.00 0.00 0.00 82 1010.7
20260505030000 74 194 5.2 13.0 0.00 0.00 0.00 82 1010.7
20260505025438 74 154 4.3 10.4 0.00 0.00 0.00 82 1010.7
20260505025203 74 152 4.3 10.4 0.00 0.00 0.00 82 1010.8
20260505024406 74 160 5.2 12.2 0.00 0.00 0.00 82 1010.6
20260505023840 74 165 4.3 12.2 0.00 0.00 0.00 82 1010.7
20260505023316 74 174 5.2 12.2 0.00 0.00 0.00 82 1010.6
20260505023018 74 218 5.2 12.2 0.00 0.00 0.00 82 1010.6
20260505022244 74 135 5.2 11.3 0.00 0.00 0.00 82 1010.6
20260505021718 74 160 5.2 12.2 0.00 0.00 0.00 82 1010.5
20260505021152 74 139 5.2 12.2 0.00 0.00 0.00 82 1010.5
20260505020649 74 108 5.2 10.4 0.00 0.00 0.00 82 1010.5
20260505020125 74 176 6.1 13.0 0.00 0.00 0.00 82 1010.5
20260505015618 74 200 6.1 13.0 0.00 0.00 0.00 82 1010.4
20260505015053 75 122 4.3 12.2 0.00 0.00 0.00 81 1010.4
20260505014525 75 148 4.3 9.6 0.00 0.00 0.00 81 1010.4
20260505014023 75 191 5.2 10.4 0.00 0.00 0.00 81 1010.3
20260505013455 75 135 7.0 15.6 0.00 0.00 0.00 80 1010.3
20260505012952 75 124 7.0 15.6 0.00 0.00 0.00 80 1010.2
20260505012427 75 188 5.2 11.3 0.00 0.00 0.00 80 1010.1
20260505011912 75 179 5.2 11.3 0.00 0.00 0.00 80 1010.1
20260505011400 76 109 6.1 13.0 0.00 0.00 0.00 79 1010.2
20260505011355 75 142 7.0 13.0 0.00 0.00 0.00 79 1010.2
20260505010325 76 130 6.1 14.8 0.00 0.00 0.00 79 1010.1
20260505005822 76 164 6.1 14.8 0.00 0.00 0.00 79 1010.0
20260505005319 76 156 5.2 14.8 0.00 0.00 0.00 78 1010.0
20260505004817 76 195 6.1 14.8 0.00 0.00 0.00 78 1010.0
20260505004249 76 179 6.1 12.2 0.00 0.00 0.00 78 1009.8
20260505003746 76 183 7.0 15.6 0.00 0.00 0.00 78 1009.9
20260505003223 77 157 7.0 15.6 0.00 0.00 0.00 77 1009.9
20260505002716 77 97 6.1 12.2 0.00 0.00 0.00 77 1010.0
20260505002149 77 157 5.2 12.2 0.00 0.00 0.00 76 1009.9
20260505001646 78 163 4.3 10.4 0.00 0.00 0.00 76 1009.9
20260505001128 78 171 5.2 10.4 0.00 0.00 0.00 76 1010.0
20260505000622 78 186 5.2 10.4 0.00 0.00 0.00 76 1009.9
20260505000345 78 131 4.3 12.2 0.00 0.00 0.00 76 1009.9
20260504235547 78 197 4.3 12.2 0.00 0.00 0.00 76 1010.1
20260504235045 78 142 5.2 13.9 0.00 0.00 0.00 76 1010.0
20260504234517 78 160 6.1 13.9 0.00 0.00 0.00 75 1010.2
20260504234015 78 165 6.1 13.0 0.00 0.00 0.00 75 1010.3
20260504233511 78 163 6.1 13.0 0.00 0.00 0.00 75 1010.4
20260504233011 78 151 6.1 13.0 0.00 0.00 0.00 75 1010.2
20260504232441 78 166 7.0 13.9 0.00 0.00 0.00 74 1010.3
20260504231942 78 183 6.1 12.2 0.00 0.00 0.00 74 1010.3
20260504231416 79 148 6.1 14.8 0.00 0.00 0.00 73 1010.3
20260504230908 79 168 5.2 14.8 0.00 0.00 0.00 73 1010.4
20260504230615 79 153 6.1 15.6 0.00 0.00 0.00 74 1010.5
20260504225842 79 148 7.0 15.6 0.00 0.00 0.00 74 1010.5
20260504225317 79 182 6.1 14.8 0.00 0.00 0.00 74 1010.5
20260504225024 79 122 7.0 14.8 0.00 0.00 0.00 74 1010.7
20260504224226 79 120 7.0 13.9 0.00 0.00 0.00 73 1010.6
20260504223715 79 125 7.8 13.9 0.00 0.00 0.00 73 1010.7
20260504223210 79 177 7.8 16.5 0.00 0.00 0.00 72 1010.6
20260504222707 79 172 7.0 16.5 0.00 0.00 0.00 72 1010.7
20260504222210 80 132 6.1 13.0 0.00 0.00 0.00 71 1010.9
20260504221708 80 159 5.2 12.2 0.00 0.00 0.00 71 1010.9
20260504221152 80 190 5.2 12.2 0.00 0.00 0.00 70 1010.9
20260504220651 80 191 6.1 14.8 0.00 0.00 0.00 71 1011.0
20260504220136 80 131 6.1 14.8 0.00 0.00 0.00 70 1011.0
20260504215625 80 145 6.1 13.9 0.00 0.00 0.00 69 1011.1
20260504215124 80 109 7.0 13.9 0.00 0.00 0.00 69 1011.1
20260504214624 80 124 7.0 12.2 0.00 0.00 0.00 68 1011.0
20260504214125 81 195 6.1 13.0 0.00 0.00 0.00 68 1011.1
20260504213607 81 170 6.1 12.2 0.00 0.00 0.00 67 1011.3
20260504213103 81 231 5.2 12.2 0.00 0.00 0.00 67 1011.2
20260504212620 81 216 6.1 10.4 0.00 0.00 0.00 66 1011.2
20260504212042 82 158 6.1 11.3 0.00 0.00 0.00 66 1011.3
20260504211514 82 145 5.2 11.3 0.00 0.00 0.00 66 1011.4
20260504210948 82 217 4.3 11.3 0.00 0.00 0.00 65 1011.4
20260504210700 82 125 4.3 10.4 0.00 0.00 0.00 64 1011.4
20260504205923 82 156 4.3 10.4 0.00 0.00 0.00 63 1011.6
20260504205358 82 55 4.3 8.7 0.00 0.00 0.00 65 1011.6
20260504204831 82 145 4.3 12.2 0.00 0.00 0.00 64 1011.7
20260504204306 82 204 5.2 12.2 0.00 0.00 0.00 64 1011.8
20260504203738 82 108 4.3 11.3 0.00 0.00 0.00 64 1011.7
20260504203235 83 193 3.5 11.3 0.00 0.00 0.00 63 1011.8
20260504202738 82 191 4.3 9.6 0.00 0.00 0.00 64 1011.9
20260504202229 82 185 5.2 13.0 0.00 0.00 0.00 63 1011.9
20260504201705 82 195 4.3 13.0 0.00 0.00 0.00 64 1012.1
20260504201201 82 187 5.2 10.4 0.00 0.00 0.00 64 1012.2
20260504200657 82 235 5.2 10.4 0.00 0.00 0.00 63 1012.4
20260504200132 83 219 3.5 7.8 0.00 0.00 0.00 62 1012.3
20260504195604 83 201 2.6 7.0 0.00 0.00 0.00 62 1012.4
20260504195101 83 179 3.5 11.3 0.00 0.00 0.00 64 1012.5
20260504194535 83 205 5.2 11.3 0.00 0.00 0.00 62 1012.6
20260504194008 83 116 5.2 10.4 0.00 0.00 0.00 62 1012.7
20260504193506 83 246 5.2 12.2 0.00 0.00 0.00 62 1012.7
20260504192939 83 212 6.1 12.2 0.00 0.00 0.00 63 1012.8
20260504192436 82 139 6.1 13.9 0.00 0.00 0.00 62 1012.9
20260504191908 82 203 6.1 13.9 0.00 0.00 0.00 62 1012.9
20260504191405 82 210 5.2 12.2 0.00 0.00 0.00 62 1013.0
20260504190838 82 195 4.3 11.3 0.00 0.00 0.00 62 1013.1
20260504190334 82 158 4.3 11.3 0.00 0.00 0.00 62 1013.2
20260504185832 82 185 4.3 8.7 0.00 0.00 0.00 61 1013.2
20260504185305 82 204 4.3 8.7 0.00 0.00 0.00 62 1013.2
20260504184802 81 133 5.2 10.4 0.00 0.00 0.00 63 1013.3
20260504184235 82 212 5.2 10.4 0.00 0.00 0.00 62 1013.4
20260504183710 83 197 5.2 15.6 0.00 0.00 0.00 62 1013.3
20260504183148 81 196 4.3 11.3 0.00 0.00 0.00 63 1013.1
20260504183142 82 177 5.2 15.6 0.00 0.00 0.00 63 1013.2
20260504182139 80 185 7.0 14.8 0.00 0.00 0.00 64 1013.5
20260504182134 80 131 6.1 14.8 0.00 0.00 0.00 64 1013.3
20260504181104 81 197 6.1 13.0 0.00 0.00 0.00 63 1013.6
20260504180831 80 118 6.1 12.2 0.00 0.00 0.00 63 1013.7
20260504180330 80 247 7.0 12.2 0.00 0.00 0.00 64 1013.9
20260504175531 80 220 7.0 12.2 0.00 0.00 0.00 63 1013.9
20260504175026 80 192 6.1 13.0 0.00 0.00 0.00 63 1013.8
20260504174523 80 177 6.1 13.0 0.00 0.00 0.00 63 1014.1
20260504173958 79 215 6.1 13.9 0.00 0.00 0.00 63 1014.1
20260504173430 80 189 6.1 13.9 0.00 0.00 0.00 64 1013.9
20260504173158 80 108 5.2 12.2 0.00 0.00 0.00 64 1014.1
20260504172630 80 204 5.2 10.4 0.00 0.00 0.00 64 1014.3
20260504171858 80 214 6.1 13.9 0.00 0.00 0.00 64 1014.5